Preview of NWS' New Version of Forecast
This preview is not operational and should not be used for support decisions.

Regional Weather Roundup (RWR)

Issued by National Weather Service (NWS)

                            
000
ASUS43 KDTX 221401
RWRMI 
MICHIGAN HOURLY REGIONAL WEATHER ROUNDUP
NATIONAL WEATHER SERVICE DETROIT/PONTIAC MI
1000 AM EDT MON JUL 22 2019

NOTE: "FAIR" INDICATES FEW OR NO CLOUDS BELOW 12,000 FEET WITH NO
SIGNIFICANT WEATHER AND/OR OBSTRUCTION TO VISIBILITY.

MIZ047>049-052>055-059>063-066>070-074>076-081>083-221500-
SOUTHEAST LOWER MICHIGAN
  
CITY           SKY/WX    TMP DP  RH WIND       PRES   REMARKS
ADRIAN         FAIR      68  61  78 NE9       29.98R                  
ALMA           FAIR      63  49  61 NW12      30.03R                  
ANN ARBOR      FAIR     N/A N/A N/A N7        29.97S                  
BAD AXE        FAIR      66  57  71 N7        29.98R                  
CARO           FAIR      68  56  64 NW6       29.97S                  
DETROIT CITY   FAIR      69  57  65 N10       29.96S                  
DETROIT        PTSUNNY   71  60  68 N13       29.96F                  
FLINT          FAIR      71  52  50 N7        29.98F                  
GROSSE ILE     FAIR      69  61  76 N7        29.94F                  
HILLSDALE      FAIR      68  62  81 N7        29.98F                  
HOWELL         FAIR      68  55  62 N5        29.98S                  

CITY           SKY/WX    TMP DP  RH WIND       PRES   REMARKS
JACKSON        FAIR      70  62  76 N5        29.99S                  
LAMBERTVILLE   FAIR     N/A N/A N/A N6        29.95S                  
LANSING        FAIR      67  54  63 N6        30.00S                  
LAPEER         NOT AVBL                                               
MASON          FAIR      69  59  69 CALM      29.99S                  
MONROE         FAIR      69  68  95 N9        29.95S                  
MT. CLEMENS    PTSUNNY   72  61  68 N9        29.96S                  
PONTIAC        FAIR      69  56  62 NW7       29.94F                  
PORT HOPE        N/A     67  61  81 NW7       29.94F                  
PORT HURON     FAIR      68  57  68 N9        29.95F                  
TRI CITIES     FAIR      65  54  67 NW10      30.00S                  
MIDLAND        NOT AVBL                                               
TROY           PTSUNNY   67  55  65 NW6       29.98S                  
SAGINAW HB     FAIR      66  52  59 N7        29.98F                  
$$
MIZ043>046-050>051-056>058-064>065-071>073-077>080-221500-
SOUTHWEST LOWER MICHIGAN
  
CITY           SKY/WX    TMP DP  RH WIND       PRES   REMARKS
BATTLE CREEK   FAIR      69  60  73 N7        30.01S                  
BENTON HARBOR  FAIR      69  58  67 NE9       30.03R                  
BIG RAPIDS     FAIR      64  53  67 N9        30.04S                  
COLDWATER      PTSUNNY   66  63  90 N7        29.99S                  
FREMONT        FAIR      66  50  55 N12       30.04F                  
HOLLAND        FAIR      65  54  67 N6        30.05S                  
GRAND RAPIDS   PTSUNNY   64  53  67 N12       30.03S                  
IONIA          FAIR      64  50  59 N7        30.02R                  
KALAMAZOO      FAIR      67  56  67 N12       30.02R                  
LUDINGTON      FAIR      67  55  65 N10G17    30.06S                  
MARSHALL       FAIR      68  64  85 N6        29.99F                  
MOUNT PLEASANT FAIR      63  53  69 NW7       30.02S                  
MUSKEGON       FAIR      70  54  56 N14       30.05F                  
$$
MIZ016>042-221500-
NORTHERN LOWER MICHIGAN
  
CITY           SKY/WX    TMP DP  RH WIND       PRES   REMARKS
ALPENA         FAIR      67  54  63 N13       30.01F                  
BEAVER ISLAND  FAIR      64  51  62 NW8       30.07S                  
BELLAIRE       FAIR      70  56  61 N5        30.05S                  
CADILLAC       FAIR      67  52  59 N8        30.05R                  
CHARLEVOIX     FAIR      67  57  70 N10       30.09S                  
FRANKFORT      FAIR      69  54  58 N7        30.08R                  
GAYLORD        FAIR      63  48  58 NE8       30.05S                  
GRAYLING       FAIR      66  51  59 N9        30.03R                  
HOUGHTON LAKE  CLOUDY    63  52  67 N8        30.05R                  
MANISTEE       FAIR      68  55  63 N8        30.06R                  
OSCODA         FAIR      64  55  72 NW10      29.99R                  
PELLSTON       FAIR      69  50  50 N6        30.05S                  
TRAVERSE CITY  FAIR      67  55  65 N8        30.05S                  
$$
MIZ007>008-015-221500-
EASTERN UPPER MICHIGAN
  
CITY           SKY/WX    TMP DP  RH WIND       PRES   REMARKS
KINROSS        FAIR      65  51  60 VRB6      30.05S                  
NEWBERRY       FAIR      65  46  50 N6        30.07S                  
S. S. MARIE    FAIR      67  55  65 W6        30.04S                  
MUNISING         N/A     66  53  63 N9        30.08R                  
$$
MIZ004>006-011>014-085-221500-
CENTRAL UPPER MICHIGAN
  
CITY           SKY/WX    TMP DP  RH WIND       PRES   REMARKS
MANISTIQUE     FAIR      68  54  60 NW8       30.08R                  
ESCANABA       FAIR      67  51  56 N7        30.10R                  
MENOMINEE      FAIR      65  53  65 N8        30.11S                  
SAWYER-GWINN   SUNNY     66  48  52 NW8       30.10R                  
$$
MIZ001>003-009>011-084-221500-
WESTERN UPPER MICHIGAN
  
CITY           SKY/WX    TMP DP  RH WIND       PRES   REMARKS
IRON MOUNTAIN  FAIR      66  51  58 NW9       30.12R                  
HOUGHTON       FAIR      65  52  62 NW16      30.10R                  
COPPER HARBOR    N/A     66  52  60 N13G21    30.07R                  
IRONWOOD       FAIR      62  54  74 W8        30.18R                  
$$

ABBREVIATIONS USED IN REMARKS
   TC - TEMPERATURE IN CELSIUS
  WCI - WIND CHILL INDEX
   HX - HEAT INDEX
  VSB - VISIBILITY